This is the latest recevied weather packets stored in our database for station/object N8SDR. If no packets are shown the sender has not sent any weather packets the latest 10 day(s).
| Time | Temp. | Humidity | Pressure | Rain* | Wind** | Luminosity | Snow |
|---|---|---|---|---|---|---|---|
| 1777928994 | 24.44° C | 54% | 1003.4 hPa | 0 mm | - | 150 W/m² | - |
| 1777928690 | 23.89° C | 55% | 1003.4 hPa | 0 mm | - | 336 W/m² | - |
| 1777928387 | 23.89° C | 53% | 1003.5 hPa | 0 mm | - | 262 W/m² | - |
| 1777928085 | 23.89° C | 54% | 1003.6 hPa | 0 mm | - | 335 W/m² | - |
| 1777927783 | 23.89° C | 56% | 1003.8 hPa | 0 mm | - | 324 W/m² | - |
| 1777927481 | 23.33° C | 55% | 1003.6 hPa | 0 mm | - | 295 W/m² | - |
| 1777927180 | 23.33° C | 56% | 1003.8 hPa | 0 mm | - | 296 W/m² | - |
| 1777926877 | 23.33° C | 56% | 1003.6 hPa | 0 mm | - | 257 W/m² | - |
| 1777926573 | 23.33° C | 56% | 1004 hPa | 0 mm | - | 238 W/m² | - |
| 1777926270 | 23.33° C | 56% | 1004.1 hPa | 0 mm | - | 244 W/m² | - |
| 1777925966 | 23.33° C | 58% | 1004.2 hPa | 0 mm | - | 238 W/m² | - |
| 1777925664 | 22.78° C | 59% | 1004.2 hPa | 0 mm | - | 224 W/m² | - |
| 1777925361 | 23.33° C | 58% | 1003.9 hPa | 0 mm | - | 200 W/m² | - |
| 1777925058 | 23.33° C | 59% | 1003.9 hPa | 0 mm | - | 258 W/m² | - |
| 1777924755 | 23.33° C | 60% | 1004.2 hPa | 0 mm | - | 560 W/m² | - |
| 1777924450 | 22.78° C | 60% | 1004.2 hPa | 0 mm | - | 643 W/m² | - |
| 1777924147 | 21.67° C | 64% | 1004.2 hPa | 0 mm | - | 605 W/m² | - |
| 1777923843 | 21.67° C | 64% | 1004.1 hPa | 0 mm | - | 310 W/m² | - |
| 1777923539 | 21.11° C | 66% | 1004.1 hPa | 0 mm | - | 304 W/m² | - |
| 1777923236 | 20.56° C | 68% | 1004.3 hPa | 0 mm | - | 314 W/m² | - |
| 1777922935 | 20.56° C | 69% | 1004.7 hPa | 0 mm | - | 265 W/m² | - |
| 1777922632 | 20° C | 70% | 1004.6 hPa | 0 mm | - | 219 W/m² | - |
| 1777922330 | 20° C | 73% | 1004.6 hPa | 0 mm | - | 144 W/m² | - |
| 1777922028 | 19.44° C | 73% | 1004.5 hPa | 0 mm | - | 113 W/m² | - |
| 1777921723 | 19.44° C | 74% | 1005 hPa | 0 mm | - | 95 W/m² | - |
* Rain latest hour (hover to see other rain measurements)
** Current wind speed in m/s (hover to see current wind gust speed)